Location: Champs
(48.8539°N, 2.6040°E)
Time: 06:00:23
(UTC+00:00)

ALOS - Pass Details

Date: 26 October 2021
Orbit: 683 x 684 km, 97.9° (Epoch: 04 December)

Event Time Altitude Azimuth Distance (km) Brightness Sun altitude
Rises 03:39:27 0° 15° (NNE) 3,063 6.0 -28.0°
Reaches altitude 10° 03:41:44 10° 18° (NNE) 2,142 5.2 -27.7°
Maximum altitude 03:46:24 68° 102° (ESE) 739 2.5 -26.9°
Enters shadow 03:46:45 65° 132° (SE) 754 2.5 -26.9°
